Himsel Army Airfld, Nineveh,, IN

10:18 AM EST on January 20, 2018 (GMT -0500)
Himsel Army Airfld, Nineveh,

Weather History for K1II - April, 2014

Change the Weather History Date:

Tuesday, April 15, 2014

  Actual Average (KBAK) Record (KBAK)
Temperature  
Mean Temperature 34 °F -  
Max Temperature 39 °F 62 °F 82 °F (2002)
Min Temperature 30 °F 43 °F 30 °F (2008)
Degree Days  
Heating Degree Days 30    
Moisture  
Dew Point 26 °F    
Average Humidity 75    
Maximum Humidity 100    
Minimum Humidity 45    
Precipitation  
Precipitation 0.00 in - - ()
Sea Level Pressure  
Sea Level Pressure 30.08 in    
Wind  
Wind Speed 11 mph (NNW)    
Max Wind Speed 17 mph    
Max Gust Speed 24 mph    
Visibility 9 miles    
Events Snow    
Averages and records for this station are not official NWS values.
T = Trace of Precipitation, MM = Missing Value Source: NWS Daily Summary

Daily Weather History Graph

Daily Weather History Graph

Search for Another Location

Airport or City:

Trip Planner

Search our weather history database for the weather conditions in past years. The results will help you decide how hot, cold, wet, or windy it might be!

Date:

Astronomy

Apr. 15, 2014 Rise Set
Actual Time 7:07 AM EDT 8:21 PM EDT
Civil Twilight 6:39 AM EDT 8:49 PM EDT
Nautical Twilight 6:06 AM EDT 9:22 PM EDT
Astronomical Twilight 5:31 AM EDT 9:57 PM EDT
Moon 9:01 PM EDT (4/15) 7:14 AM EDT (4/15)
Length of Visible Light 14h 10m
Length of Day
13h 14m
Full, 100% of the Moon is Illuminated
Apr 15
Full
Apr 22
Last Quarter
Apr 29
New
May 6
First Quarter
May 14
Full

Hourly Weather History & Observations

Time (EDT) Temp. Windchill Dew Point Humidity Pressure Visibility Wind Dir Wind Speed Gust Speed Precip Events Conditions
12:15 AM 32.0 °F 22.5 °F 32.0 °F 100% 29.90 in 5.0 mi North 12.7 mph 18.4 mph N/A Snow Light Snow
12:35 AM 32.0 °F 23.6 °F 32.0 °F 100% 29.89 in 5.0 mi North 10.4 mph - N/A Snow Light Snow
1:15 AM 32.0 °F 24.2 °F 32.0 °F 100% 29.91 in 3.0 mi NNW 9.2 mph - N/A Snow Light Snow
1:35 AM 32.0 °F 22.1 °F 32.0 °F 100% 29.90 in 4.0 mi NNW 13.8 mph 18.4 mph N/A Snow Light Snow
1:55 AM 33.8 °F 28.6 °F 32.0 °F 93% 29.93 in 7.0 mi NW 5.8 mph - N/A Snow Light Snow
2:15 AM 33.8 °F 26.4 °F 32.0 °F 93% 29.94 in 5.0 mi NNW 9.2 mph - N/A Snow Light Snow
2:35 AM 33.8 °F 25.8 °F 32.0 °F 93% 29.93 in 10.0 mi NNW 10.4 mph - N/A   Overcast
2:55 AM 33.8 °F 27.0 °F 32.0 °F 93% 29.93 in 10.0 mi NNW 8.1 mph - N/A   Overcast
3:15 AM 33.8 °F 24.8 °F 32.0 °F 93% 29.92 in 10.0 mi NNW 12.7 mph 19.6 mph N/A   Overcast
3:35 AM 33.8 °F 25.8 °F 32.0 °F 93% 29.92 in 10.0 mi NNW 10.4 mph 13.8 mph N/A   Overcast
3:55 AM 33.8 °F 24.8 °F 30.2 °F 87% 29.93 in 10.0 mi NNW 12.7 mph 18.4 mph N/A   Overcast
4:15 AM 33.8 °F 24.8 °F 30.2 °F 87% 29.93 in 10.0 mi NNW 12.7 mph 19.6 mph N/A   Overcast
4:35 AM 33.8 °F 23.9 °F 30.2 °F 87% 29.93 in 10.0 mi NNW 15.0 mph - N/A   Overcast
4:55 AM 33.8 °F 25.8 °F 30.2 °F 87% 29.92 in 10.0 mi NNW 10.4 mph 16.1 mph N/A   Overcast
5:15 AM 33.8 °F 25.3 °F 30.2 °F 87% 29.93 in 10.0 mi NNW 11.5 mph 17.3 mph N/A   Overcast
5:35 AM 33.8 °F 25.3 °F 30.2 °F 87% 29.93 in 10.0 mi NNW 11.5 mph - N/A   Overcast
5:55 AM 33.8 °F 25.3 °F 30.2 °F 87% 29.94 in 3.0 mi NNW 11.5 mph - N/A Snow Light Snow
6:15 AM 32.0 °F 23.0 °F 30.2 °F 93% 29.94 in 2.5 mi North 11.5 mph - N/A Snow Light Snow
6:35 AM 32.0 °F 24.2 °F 32.0 °F 100% 29.96 in 0.8 mi NNW 9.2 mph - N/A Snow Light Snow
6:55 AM 32.0 °F 24.2 °F 32.0 °F 100% 29.97 in 3.0 mi NW 9.2 mph - N/A Snow Light Snow
7:15 AM 32.0 °F 22.1 °F 30.2 °F 93% 29.98 in 4.0 mi NNW 13.8 mph - N/A Snow Light Snow
7:35 AM 32.0 °F 23.6 °F 30.2 °F 93% 30.00 in 7.0 mi NNW 10.4 mph - N/A Snow Light Snow
7:55 AM 32.0 °F 23.6 °F 30.2 °F 93% 30.01 in 7.0 mi NNW 10.4 mph - N/A   Overcast
8:15 AM 32.0 °F 24.8 °F 30.2 °F 93% 30.02 in 10.0 mi WNW 8.1 mph - N/A   Overcast
8:35 AM 32.0 °F 23.0 °F 28.4 °F 87% 30.03 in 7.0 mi NW 11.5 mph 17.3 mph N/A Snow Light Snow
8:55 AM 32.0 °F 23.0 °F 28.4 °F 87% 30.05 in 10.0 mi NW 11.5 mph - N/A Snow Light Snow
9:15 AM 32.0 °F 23.0 °F 28.4 °F 87% 30.06 in 1.2 mi NNW 11.5 mph 15.0 mph N/A Snow Light Snow
9:35 AM 32.0 °F 22.5 °F 30.2 °F 93% 30.06 in 3.0 mi NNW 12.7 mph 18.4 mph N/A Snow Light Snow
9:55 AM 32.0 °F 22.5 °F 28.4 °F 87% 30.07 in 10.0 mi North 12.7 mph - N/A   Overcast
10:15 AM 35.6 °F 27.5 °F 30.2 °F 81% 30.07 in 10.0 mi North 11.5 mph - N/A   Overcast
10:35 AM 32.0 °F 21.6 °F 28.4 °F 87% 30.08 in 5.0 mi North 15.0 mph - N/A Snow Light Snow
10:55 AM 35.6 °F 26.6 °F 30.2 °F 81% 30.09 in 10.0 mi North 13.8 mph 20.7 mph N/A   Overcast
11:15 AM 33.8 °F 24.3 °F 26.6 °F 75% 30.10 in 10.0 mi NNW 13.8 mph - N/A   Overcast
11:35 AM 35.6 °F 26.2 °F 26.6 °F 70% 30.10 in 10.0 mi NNW 15.0 mph 23.0 mph N/A   Mostly Cloudy
11:55 AM 35.6 °F 28.0 °F 23.0 °F 60% 30.11 in 10.0 mi NW 10.4 mph 20.7 mph N/A   Mostly Cloudy
12:35 PM 35.6 °F 26.2 °F 26.6 °F 70% 30.12 in 10.0 mi NNW 15.0 mph 21.9 mph N/A   Overcast
12:55 PM 33.8 °F 24.3 °F 28.4 °F 81% 30.13 in 10.0 mi North 13.8 mph - N/A   Overcast
1:35 PM 35.6 °F 26.2 °F 24.8 °F 65% 30.13 in 10.0 mi NW 15.0 mph 19.6 mph N/A   Mostly Cloudy
2:15 PM 35.6 °F 27.5 °F 23.0 °F 60% 30.13 in 10.0 mi NW 11.5 mph - N/A   Mostly Cloudy
2:35 PM 37.4 °F 28.9 °F 23.0 °F 56% 30.14 in 10.0 mi NW 13.8 mph 24.2 mph N/A   Mostly Cloudy
2:55 PM 37.4 °F 27.8 °F 23.0 °F 56% 30.15 in 10.0 mi NNW 17.3 mph 21.9 mph N/A   Mostly Cloudy
3:15 PM 37.4 °F 28.9 °F 21.2 °F 52% 30.16 in 10.0 mi NW 13.8 mph 21.9 mph N/A   Overcast
3:35 PM 39.2 °F 30.8 °F 23.0 °F 52% 30.16 in 10.0 mi NNW 15.0 mph 18.4 mph N/A   Overcast
3:55 PM 37.4 °F 28.5 °F 19.4 °F 48% 30.15 in 10.0 mi NW 15.0 mph 24.2 mph N/A   Mostly Cloudy
4:15 PM 37.4 °F 28.9 °F 21.2 °F 52% 30.16 in 10.0 mi NNW 13.8 mph 20.7 mph N/A   Overcast
4:35 PM 37.4 °F 28.9 °F 19.4 °F 48% 30.16 in 10.0 mi NNW 13.8 mph 19.6 mph N/A   Overcast
4:55 PM 39.2 °F 30.5 °F 19.4 °F 45% 30.16 in 10.0 mi NNW 16.1 mph 19.6 mph N/A   Mostly Cloudy
5:15 PM 39.2 °F 30.5 °F 19.4 °F 45% 30.16 in 10.0 mi North 16.1 mph 21.9 mph N/A   Mostly Cloudy
5:35 PM 37.4 °F 29.8 °F 19.4 °F 48% 30.17 in 10.0 mi NNW 11.5 mph 18.4 mph N/A   Overcast
5:55 PM 37.4 °F 28.9 °F 19.4 °F 48% 30.17 in 10.0 mi NW 13.8 mph 20.7 mph N/A   Overcast
6:15 PM 37.4 °F 28.9 °F 19.4 °F 48% 30.19 in 10.0 mi NW 13.8 mph 20.7 mph N/A   Mostly Cloudy
6:35 PM 37.4 °F 29.3 °F 17.6 °F 45% 30.20 in 10.0 mi WNW 12.7 mph - N/A   Scattered Clouds
6:55 PM 35.6 °F 29.2 °F 17.6 °F 48% 30.20 in 10.0 mi NW 8.1 mph - N/A   Scattered Clouds
7:15 PM 35.6 °F 28.6 °F 17.6 °F 48% 30.20 in 10.0 mi NW 9.2 mph 16.1 mph N/A   Scattered Clouds
7:35 PM 35.6 °F 31.7 °F 19.4 °F 52% 30.20 in 10.0 mi NNW 4.6 mph - N/A   Scattered Clouds
7:55 PM 35.6 °F 28.6 °F 19.4 °F 52% 30.20 in 10.0 mi NNW 9.2 mph - N/A   Scattered Clouds
8:15 PM 33.8 °F 27.0 °F 19.4 °F 56% 30.21 in 10.0 mi North 8.1 mph - N/A   Clear
8:35 PM 32.0 °F 26.4 °F 19.4 °F 60% 30.21 in 10.0 mi NNW 5.8 mph - N/A   Clear
8:55 PM 33.8 °F - 19.4 °F 56% 30.22 in 10.0 mi Calm Calm - N/A   Clear
9:15 PM 32.0 °F - 19.4 °F 60% 30.23 in 10.0 mi Calm Calm - N/A   Clear
9:35 PM 32.0 °F - 21.2 °F 64% 30.24 in 10.0 mi Calm Calm - N/A   Clear
9:55 PM 32.0 °F - 21.2 °F 64% 30.25 in 10.0 mi Calm Calm - N/A   Clear
10:15 PM 30.2 °F - 23.0 °F 75% 30.25 in 10.0 mi Calm Calm - N/A   Clear
10:35 PM 32.0 °F - 24.8 °F 75% 30.25 in 10.0 mi Calm Calm - N/A   Clear
10:55 PM 30.2 °F - 24.8 °F 80% 30.26 in 10.0 mi Calm Calm - N/A   Clear
11:15 PM 30.2 °F - 24.8 °F 80% 30.26 in 10.0 mi Calm Calm - N/A   Clear
11:35 PM 30.2 °F - 26.6 °F 86% 30.26 in 10.0 mi Calm Calm - N/A   Clear
11:55 PM 30.2 °F - 26.6 °F 86% 30.26 in 10.0 mi Calm Calm - N/A   Clear